Kos, Greece

10:17 PM EEST on April 25, 2017 (GMT +0300)
Ippokratis

Weather History for LGKO - November, 2012

Change the Weather History Date:

Wednesday, November 7, 2012

  Actual Average Record
Temperature  
Mean Temperature 70 °F -  
Max Temperature 75 °F 62 °F 75 °F (1998)
Min Temperature 66 °F 53 °F 53 °F (2006)
Cooling Degree Days 6    
Growing Degree Days 20 (Base 50)    
Moisture  
Dew Point 65 °F    
Average Humidity 80    
Maximum Humidity 88    
Minimum Humidity 73    
Precipitation  
Precipitation 0.00 in - - ()
Sea Level Pressure  
Sea Level Pressure 29.99 in    
Wind  
Wind Speed 6 mph ()    
Max Wind Speed 12 mph    
Max Gust Speed -    
Visibility 6.2 miles    
Events      
Averages and records for this station are not official NWS values.
T = Trace of Precipitation, MM = Missing Value Source: Averaged Metar Reports

Daily Weather History Graph

Daily Weather History Graph

Search for Another Location

Airport or City:

Trip Planner

Search our weather history database for the weather conditions in past years. The results will help you decide how hot, cold, wet, or windy it might be!

Date:

Astronomy

Nov. 07, 2012 Rise Set
Actual Time 6:41 AM EET 5:08 PM EET
Civil Twilight 6:14 AM EET 5:35 PM EET
Nautical Twilight 5:43 AM EET 6:06 PM EET
Astronomical Twilight 5:13 AM EET 6:37 PM EET
Moon No Moon Rise 12:57 PM EET (11/7)
Length of Visible Light 11h 21m
Length of Day
10h 26m
Last Quarter, 46% of the Moon is Illuminated
Nov 7
Last Quarter
Nov 14
New
Nov 20
First Quarter
Nov 28
Full
Dec 6
Last Quarter

Hourly Weather History & Observations

Time (EET) Temp. Dew Point Humidity Pressure Visibility Wind Dir Wind Speed Gust Speed Precip Events Conditions
12:50 AM 69.8 °F 64.4 °F 83% 30.01 in 6.2 mi SSW 6.9 mph - N/A   Scattered Clouds
1:50 AM 69.8 °F 64.4 °F 83% 30.01 in 6.2 mi South 8.1 mph - N/A   Mostly Cloudy
2:50 AM 69.8 °F 64.4 °F 83% 30.01 in 6.2 mi SSW 5.8 mph - N/A   Scattered Clouds
3:50 AM 69.8 °F 64.4 °F 83% 30.01 in 6.2 mi SSW 9.2 mph - N/A   Scattered Clouds
4:50 AM 69.8 °F 66.2 °F 88% 29.98 in 6.2 mi SSW 5.8 mph - N/A   Scattered Clouds
5:20 AM 69.8 °F 66.2 °F 88% 29.98 in 6.2 mi South 5.8 mph - N/A   Scattered Clouds
5:50 AM 69.8 °F 66.2 °F 88% 29.98 in 6.2 mi SSW 4.6 mph - N/A   Scattered Clouds
6:20 AM 69.8 °F 66.2 °F 88% 29.98 in 6.2 mi SSW 4.6 mph - N/A   Scattered Clouds
6:50 AM 69.8 °F 66.2 °F 88% 30.01 in 6.2 mi South 5.8 mph - N/A   Scattered Clouds
7:20 AM 69.8 °F 66.2 °F 88% 30.01 in 6.2 mi South 5.8 mph - N/A   Scattered Clouds
7:50 AM 71.6 °F 68.0 °F 88% 30.01 in 6.2 mi SSW 6.9 mph - N/A   Scattered Clouds
8:20 AM 71.6 °F 68.0 °F 88% 30.01 in 6.2 mi SSW 8.1 mph - N/A   Scattered Clouds
8:50 AM 73.4 °F 68.0 °F 83% 30.01 in 6.2 mi South 6.9 mph - N/A   Scattered Clouds
9:20 AM 73.4 °F 68.0 °F 83% 30.01 in 6.2 mi South 9.2 mph - N/A   Scattered Clouds
9:50 AM 73.4 °F 68.0 °F 83% 30.04 in 6.2 mi South 9.2 mph - N/A   Mostly Cloudy
10:20 AM 73.4 °F 68.0 °F 83% 30.04 in 6.2 mi South 10.4 mph - N/A   Mostly Cloudy
10:50 AM 75.2 °F 66.2 °F 73% 30.04 in 6.2 mi South 11.5 mph - N/A   Mostly Cloudy
11:20 AM 75.2 °F 66.2 °F 73% 30.04 in 6.2 mi SSW 10.4 mph - N/A   Mostly Cloudy
11:50 AM 75.2 °F 66.2 °F 73% 30.01 in 6.2 mi South 9.2 mph - N/A   Mostly Cloudy
12:20 PM 75.2 °F 66.2 °F 73% 30.01 in 6.2 mi South 9.2 mph - N/A   Mostly Cloudy
12:50 PM 73.4 °F 66.2 °F 78% 30.01 in 6.2 mi SSW 6.9 mph - N/A   Mostly Cloudy
1:20 PM 73.4 °F 66.2 °F 78% 30.01 in 6.2 mi SSW 6.9 mph - N/A   Mostly Cloudy
1:50 PM 75.2 °F 66.2 °F 73% 29.98 in 6.2 mi South 6.9 mph - N/A   Mostly Cloudy
2:20 PM 75.2 °F 66.2 °F 73% 29.98 in 6.2 mi SW 5.8 mph - N/A   Mostly Cloudy
2:50 PM 75.2 °F 66.2 °F 73% 29.98 in 6.2 mi SW 5.8 mph - N/A   Mostly Cloudy
3:20 PM 75.2 °F 66.2 °F 73% 29.98 in 6.2 mi WSW 4.6 mph - N/A   Mostly Cloudy
3:50 PM 73.4 °F 64.4 °F 73% 29.98 in 6.2 mi West 6.9 mph - N/A   Mostly Cloudy
4:20 PM 73.4 °F 64.4 °F 73% 29.98 in 6.2 mi West 5.8 mph - N/A   Mostly Cloudy
4:50 PM 71.6 °F 64.4 °F 78% 29.95 in 6.2 mi WNW 5.8 mph - N/A   Scattered Clouds
5:20 PM 71.6 °F 64.4 °F 78% 29.95 in 6.2 mi WNW 5.8 mph - N/A   Scattered Clouds
5:50 PM 69.8 °F 64.4 °F 83% 29.95 in 6.2 mi WNW 5.8 mph - N/A   Scattered Clouds
6:20 PM 69.8 °F 64.4 °F 83% 29.95 in 6.2 mi WNW 5.8 mph - N/A   Scattered Clouds
6:50 PM 68.0 °F 62.6 °F 83% 29.95 in 6.2 mi NW 4.6 mph - N/A   Mostly Cloudy
7:20 PM 68.0 °F 62.6 °F 83% 29.95 in 6.2 mi Calm Calm - N/A   Mostly Cloudy
7:50 PM 68.0 °F 60.8 °F 78% 29.95 in 6.2 mi Calm Calm - N/A   Mostly Cloudy
8:50 PM 68.0 °F 60.8 °F 78% 29.98 in 6.2 mi West 4.6 mph - N/A   Scattered Clouds
9:50 PM 66.2 °F 60.8 °F 83% 29.98 in 6.2 mi South 1.2 mph - N/A   Mostly Cloudy
10:50 PM 68.0 °F 60.8 °F 78% 29.95 in 6.2 mi South 3.5 mph - N/A   Mostly Cloudy
11:50 PM 68.0 °F 60.8 °F 78% 29.92 in 6.2 mi SW 4.6 mph - N/A   Mostly Cloudy